Location: D�rnast
(49.6426°N, 11.9755°E)
Time: 12:45:44
(UTC+00:00)

YAOGAN 6 - Pass Details

Date: 24 January 2021
Orbit: 465 x 502 km, 97.0° (Epoch: 26 February)

Event Time Altitude Azimuth Distance (km) Brightness Sun altitude
Rises 16:31:51 0° 183° (S) 2,529 6.6 -6.3°
Reaches altitude 10° 16:33:58 10° 191° (S) 1,662 5.8 -6.6°
Maximum altitude 16:37:21 40° 262° (W) 733 4.2 -7.1°
Drops below altitude 10° 16:40:49 10° 334° (NNW) 1,697 5.4 -7.6°
Sets 16:43:01 0° 342° (NNW) 2,591 6.2 -8.0°
